Terminal Aerodrome Forecast
Issued by NWS Grand Junction, CO

Home | Current Version | Previous Version | Text Only | Print | Product List | Glossary On
Versions: 1 2 3 4 5 6 7 8 9 10 11 12 13 14 15 16 17 18 19 20 21 22 23 24 25 26 27 28 29 30 31 32 33 34
000
FTUS45 KGJT 031735
TAFGJT
TAF
KGJT 031735Z 0318/0418 14020G29KT P6SM SCT080 BKN120
     FM032000 14010KT P6SM VCTS BKN100CB
     FM040200 14006KT P6SM BKN150
     FM040600 10009KT P6SM BKN150
     FM041400 14012KT P6SM SCT100 BKN150=

USA.gov is the U.S. government's official web portal to all federal, state and local government web resources and services.